User: anonymous   Login
Location: Melbourne
(37.8170°S, 144.9670°E)
Time: 10:51:45
(UTC+11:00)
Language:

Aureole 2 Rocket - Orbit

View from above orbital plane
View from above orbital plane
View from above satellite
View from above satellite

Ground track
Ground track

The orbit data is extracted from the following two-line orbital elements,

1 07004U 73107B   14297.46079964  .00021710  00000-0  56494-3 0  7582
2 07004 073.9473 320.6285 0285700 073.6882 044.0730 15.06501076 89802
Epoch (UTC): 24 October 2014 11:03:33
Eccentricity: 0.0285700
inclination: 73.9473°
perigee height: 349 km
apogee height: 745 km
right ascension of ascending node: 320.6285°
argument of perigee: 73.6882°
revolutions per day: 15.06501076
mean anomaly at epoch: 44.0730°
orbit number at epoch: 8980

The dashed part of the orbit path shows where the satellite is in the earth's shadow,  

DLR